Location: Lucerne Valley
(34.4439°N, 116.9669°E)
Time: 18:30:51
(UTC-08:00)

Hubble Space Telescope - Pass Details

Date: 10 October 2017
Orbit: 537 x 541 km, 28.5° (Epoch: 16 December)

Event Time Altitude Azimuth Distance (km) Brightness Sun altitude
Exits shadow 13:16:19 20° 160° (SSE) 1,279 2.8 -25.0°
Drops below altitude 10° 13:18:10 10° 138° (SE) 1,784 3.8 -24.7°
Sets 13:20:42 0° 125° (SE) 2,674 5.0 -24.1°
